Shanghai Pudong International

Airport
ICAO code: 
ZSPD
Summary
ICAO Region: 
APAC
Territory: 
Location: 
Pudong, Shanghai,
Coordinates: 
Aerial View: 
31° 8' 55.745" N, 121° 48' 3.42" E
Airport LOS: 
Parallel Runway Operation
Airport WX: 
Tropical Revolving Storm
Metar
Observation
ZSPD 200230Z 02007MPS 9999 BKN030 07/M00 Q1030 NOSIG
Station
Shanghai / Pudong
Date/Time
2022-01-20 02:30:00
Wind direction
20°
Lowest cloud amount
broken clouds
Temperature
7°C
Dew point
-0°C
Humidity
61%
QNH
1030 hPa
Weather condition
n/a

Description

International airport serving the city of Shanghai.

Climatology

Humid “subtropical” climate (Köppen climate classification Cfa) - characterized by hot, humid summers and cool winters. Significant amounts of precipitation occur in all seasons in most areas. Winter rainfall (and sometimes snowfall) is associated with large storms that the westerlies steer from west to east. Most summer rainfall occurs during thunderstorms.

Runways

Designator Length Width Surface Rops
16/34 3800 60 CON Yes/Yes
17/35 4000 60 CON Yes/Yes
Airport map: 
Aerial View: 

Accidents and Serious Incidents at or in the vicinity of ZSPD

SKYbrary Partners:

Safety knowledge contributed by: